GSAT0101 (GALILEO-PFM)

Last updated on Tue Jul 08 2025 00:02:32 GMT+0000 (Coordinated Universal Time)

1 37846U 11060A 25187.93638472 -.00000083 00000+0 00000+0 0 9991 2 37846 57.0915 351.1224 0002620 57.3780 302.6512 1.70475954 85234
UTC large
Height (km)
Speed (km/s)
/
Latitude / Longitude
Inclination (degrees)
Orbital Period (minutes)
Azimuth
Elevation
Range (km)
Doppler Factor

Next 0 passes for location: London (51.5072 / 0.1276)

Sorry there are no passes over London.